Home   Weather   Punta Cana   Past weeks

Flag for Dominican Republic Past Weather in Punta Cana, Dominican Republic — Yesterday and Last 2 Weeks

Now
88 °F

Passing clouds.


Feels Like: 102 °F
Forecast: N/A
Wind: 12 mph from Southeast

Location: Punta Cana

Current Time: Sep 24, 2016 at 5:06:34 PM

Latest Report: Sep 24, 2016 at 4:00 PM


Visibility: N/A

Pressure: 29.95 "Hg

Humidity: 75%

Dew Point: 79 °F

Location of Punta CanaLocation

Past Weather in Punta Cana — Graph

°F

Punta Cana Temperature Yesterday

Maximum temperature yesterday: 88 °F (at 11:00 AM)
Minimum temperature yesterday: 73 °F (at 7:00 AM)
Average temperature yesterday: 81 °F

High & Low Weather Summary for the Past Weeks

 TemperatureHumidityPressure
High90 °F (Sep 24, 1:00 PM)100% (Sep 10, 4:00 AM)30.07 "Hg (Sep 10, 4:00 AM)
Low73 °F (Sep 10, 5:00 AM)62% (Sep 16, 4:00 PM)29.86 "Hg (Sep 21, 4:00 PM)
Average82 °F82%29.97 "Hg
* Reported Sep 9 4:00 PM — Sep 24 4:00 PM, Punta Cana, Weather by CustomWeather, © 2016

Note: Actual official high and low records may vary slightly from our data, if they occured in-between our weather recording intervals... More about our weather records

Advertising

Punta Cana Weather History for the Previous 24 Hours

Scroll right to see more
 ConditionsComfort  
Time TempWeatherWind HumidityBarometerVisibility
4:00 PM
Sat, Sep 24
88 °FPassing clouds.12 mph75%29.95 "HgN/A
3:00 PM88 °FPassing clouds.9 mph70%29.95 "HgN/A
2:00 PM88 °FPassing clouds.12 mph75%29.98 "HgN/A
1:00 PM90 °FPassing clouds.9 mph71%30.01 "HgN/A
12:00 PM88 °FPassing clouds.9 mph70%30.01 "HgN/A
11:00 AM86 °FPassing clouds.9 mph75%30.04 "HgN/A
10:00 AM86 °FPassing clouds.7 mph75%30.04 "HgN/A
9:00 AM86 °FPassing clouds.7 mph70%30.04 "HgN/A
8:00 AM84 °FPassing clouds.7 mph79%30.01 "HgN/A
7:00 AM77 °FPassing clouds.No wind94%30.01 "HgN/A
6:00 AM79 °FPassing clouds.No wind89%29.98 "HgN/A
5:00 AM79 °FPassing clouds.No wind94%29.98 "HgN/A
4:00 AM81 °FPassing clouds.No wind89%29.98 "HgN/A
3:00 AM79 °FPassing clouds.5 mph89%29.98 "HgN/A
2:00 AM77 °FPassing clouds.No wind94%29.98 "HgN/A
1:00 AM75 °FPassing clouds.No wind94%30.01 "HgN/A
12:00 AM75 °FPassing clouds.5 mph100%30.01 "HgN/A
11:00 PM
Fri, Sep 23
77 °FPassing clouds.5 mph94%30.01 "HgN/A
10:00 PM77 °FPassing clouds.No wind94%30.01 "HgN/A
9:00 PM79 °FPassing clouds.5 mph89%29.98 "HgN/A
8:00 PM82 °FPassing clouds.5 mph79%29.98 "HgN/A
7:00 PM82 °FPassing clouds.5 mph79%29.95 "HgN/A
6:00 PM84 °FPassing clouds.12 mph74%29.95 "HgN/A
5:00 PM86 °FPassing clouds.9 mph70%29.95 "HgN/A
Weather by CustomWeather, © 2016

See weather overviewHow to use our weather pages